www.pogodaiklimat.ru

Погода и климат >> Архив погоды >> Россия >> Крым >> Керчь


АРХИВ ПОГОДЫ в Керчи

Время (UTC), дата Ветер
(напр.,м/с)
 
Видим.   Явления Облачность Т
(С)
Тd
(С)
f
(%)
Тe
(С)
Тes
(С)
Комфортность P
(гПа)
Po
(гПа)
Тmin
(С)
Tmax
(С)
R
(мм)
R24
(мм)
S
(см)
00 18.03 ЮЗ 2 10 км ясно +2.0 +0.7 91 -1 -1 по сезону 1019.1 1012.9
03 18.03 ЮЗ 1 10 км 5/5 600 м
[Sc]
+1.2 -0.2 90 -1 -1 по сезону 1020.0 1013.8 +0.9
06 18.03 штиль 0 20 км 3/0
[Ac trans]
+6.5 +3.4 81 +6 +10 тепло 1021.8 1015.7 +0.6
09 18.03 ЮВ 2 20 км 4/4 600 м
[Cu hum]
+10.0 +2.0 58 +9 +15 тепло 1022.7 1016.7
12 18.03 штиль 0 20 км 4/4 600 м
[Sc diur, vesp]
+10.4 +0.8 51 +10 +16 тепло 1023.0 1017.0
15 18.03 ЮВ 2 20 км 3/0
[Ac trans]
+9.8 +1.8 57 +9 +9 тепло 1023.1 1017.1
18 18.03 В 2 10 км ясно +4.5 +2.5 87 +2 +2 по сезону 1024.2 1018.0 +13.4
21 18.03 СВ 2 10 км ясно +3.7 +2.2 90 +1 +1 по сезону 1024.5 1018.3
00 19.03 СВ 2 10 км ясно +1.8 +0.7 92 -2 -2 по сезону 1024.6 1018.4
03 19.03 СВ 2 4000 м дымка ясно +2.7 +2.2 97 -1 -1 по сезону 1024.2 1018.0 +1.4
06 19.03 В 3 10 км 3/0
[Ci fib]
+7.7 +4.5 80 +5 +8 тепло 1024.2 1018.1 +1.2
09 19.03 СВ 4 20 км ясно +12.9 +4.2 55 +11 +19 тепло 1023.7 1017.7
12 19.03 СВ 5 20 км ясно +13.1 +4.7 57 +11 +15 тепло 1023.1 1017.1
15 19.03 СВ 6
{10}
20 км ясно +10.5 +3.5 62 +7 +8 тепло 1022.7 1016.7
18 19.03 В 2 10 км ясно +7.0 +3.7 79 +5 +5 тепло 1023.4 1017.3 +14.3
21 19.03 В 2 10 км ясно +5.3 +2.9 84 +3 +3 тепло 1023.5 1017.4
00 20.03 СВ 5 10 км 6/0
[Ac trans]
+5.0 +3.1 88 0 0 по сезону 1022.9 1016.8
03 20.03 СВ 5 10 км 10/8 600 м
[Sc Ac und]
+4.5 +2.8 89 -0 -0 по сезону 1023.0 1016.8 +4.4
06 20.03 СВ 5 10 км 8/6 600 м
[Sc Ac trans]
+5.3 +3.1 86 +1 +1 по сезону 1022.9 1016.8 +4.2
09 20.03 С 6 20 км 3/0
[Ac trans]
+7.8 +3.7 75 +4 +7 по сезону 1022.6 1016.5
12 20.03 С 7-10
{11}
10 км 3/0
[Ac trans]
+8.8 +4.2 73 +5 +6 по сезону 1022.5 1016.4
15 20.03 СЗ 6
{10}
10 км ясно +6.7 +3.9 82 +2 +2 по сезону 1022.4 1016.3
18 20.03 СЗ 4 10 км ясно +4.9 +2.4 84 +1 +1 по сезону 1023.8 1017.6 +9.6
21 20.03 З 6 10 км ясно +3.7 +1.7 87 -2 -2 по сезону 1023.9 1017.7
00 21.03 З 6 10 км ясно +2.9 +1.1 88 -3 -3 по сезону 1024.2 1018.0
03 21.03 СЗ 4 10 км ясно +3.3 +1.8 90 -1 -1 по сезону 1024.4 1018.2 +2.3
06 21.03 СЗ 5 4000 м дымка 1/1 600 м
[Sc]
+6.3 +5.2 93 +2 +4 по сезону 1025.2 1019.1 +0.8
09 21.03 СЗ 6
{10}
4000 м дымка 10/4 600 м
[Sc Ac und]
+7.3 +6.0 91 +3 +4 по сезону 1026.4 1020.3
12 21.03 СЗ 7
{10}
20 км 6/1 600 м
[Sc Ac trans Ci fib]
+9.0 +2.9 66 +5 +7 по сезону 1026.1 1020.0
15 21.03 З 5
{10}
20 км 4/1 600 м
[Sc Ac trans Ci fib]
+9.2 +0.3 54 +6 +6 тепло 1025.7 1019.6
18 21.03 ЮЗ 4 10 км 8/1 600 м
[Sc Ci fib]
+4.4 -0.1 73 0 0 по сезону 1026.5 1020.3 +10.4
21 21.03 ЮЗ 6 10 км 8/0
[Ac trans]
+5.5 +1.2 74 +1 +1 по сезону 1025.6 1019.5
00 22.03 З 7-10
{10}
10 км 8/0
[Ac trans]
+5.3 +1.8 78 0 0 по сезону 1025.3 1019.1
03 22.03 СЗ 5
{10}
10 км 4/0
[Ac trans]
+2.5 +0.9 89 -3 -3 прохладно 1025.5 1019.3 +2.4
06 22.03 СЗ 4 10 км 3/0
[Ac trans]
+6.0 +2.1 76 +2 +5 по сезону 1026.4 1020.3 +1.7
09 22.03 СЗ 3 20 км 10/0
[Ac trans Ci fib]
+8.7 -2.0 47 +7 +12 тепло 1026.0 1019.9
12 22.03 СЗ 4 20 км 6/0
[Ac trans Ci fib]
+10.0 -0.8 47 +8 +12 тепло 1023.8 1017.8
15 22.03 ЮЗ 4 20 км 9/0
[Ac und]
+9.2 +0.3 54 +7 +7 тепло 1021.3 1015.3
18 22.03 Ю 5 10 км 8/0
[Ac trans]
+6.9 +4.4 84 +3 +3 по сезону 1019.9 1013.8 +11.0
21 22.03 ЮЗ 7-10
{11}
10 км {ливн. осадки} 10/6 600 м
[Cb cap Ac und]
+7.8 +3.7 75 +3 +3 по сезону 1017.2 1011.2
00 23.03 З 4
{18}
10 км {ливн. осадки} 10/6 600 м
[Cb cap Ac und]
+4.2 +2.5 89 -0 -0 по сезону 1018.0 1011.9
03 23.03 З 2 10 км 3/0
[Ac trans]
+2.5 +0.6 87 -1 -1 по сезону 1017.2 1011.0 +2.4 0.5
06 23.03 ЮЗ 4 20 км 3/3 600 м
[Sc]
+6.4 +4.1 85 +3 +5 по сезону 1016.3 1010.2 +0.3 0.5
09 23.03 СЗ 8-11
{13}
20 км 4/3 600 м
[Sc Ci fib]
+7.6 -0.4 57 +3 +5 по сезону 1015.2 1009.2
12 23.03 З 7-11
{12}
20 км 6/6 600 м
[Sc]
+6.4 0.0 64 +2 +3 прохладно 1015.4 1009.3
15 23.03 СЗ 6-10
{12}
20 км 3/3 600 м
[Sc]
+4.8 -2.1 61 0 0 прохладно 1016.6 1010.5
18 23.03 З 4
{10}
10 км 8/8 600 м
[Cb cap]
+2.7 -0.3 81 -2 -2 прохладно 1018.0 1011.8 +8.2
21 23.03 СЗ 5
{11}
10 км в посл. час ливневой дождь 10/8 600 м
[Cb cap Ac und]
+2.5 +0.6 87 -3 -3 прохладно 1018.2 1012.0
00 24.03 СЗ 4 10 км {ливн. осадки} 10/6 600 м
[Sc Ac und]
+3.7 +1.1 83 -1 -1 по сезону 1017.8 1011.7
03 24.03 СЗ 4 10 км 10/5 600 м
[Sc Ac und]
+3.3 +1.0 85 -1 -1 по сезону 1018.4 1012.2 +1.8 2
06 24.03 СЗ 5 10 км 10/8 600 м
[Sc diur, vesp Ac und]
+4.3 +0.4 76 -0 -0 по сезону 1018.8 1012.7 +1.8 2
09 24.03 СЗ 3 10 км 10/8 600 м
[Sc diur, vesp Ac und]
+5.1 -2.7 57 +2 +3 по сезону 1019.0 1012.9
12 24.03 СЗ 4 10 км 4/3 600 м
[Sc diur, vesp Ac trans]
+6.9 -4.2 45 +4 +7 по сезону 1018.5 1012.4
15 24.03 З 5 10 км 8/3 600 м
[Sc diur, vesp Ac trans]
+5.3 -3.9 51 +1 +1 по сезону 1018.2 1012.1
18 24.03 ЮЗ 3 10 км 3/0
[Ac trans]
+1.4 -3.0 72 -3 -3 прохладно 1018.9 1012.7 +10.2
21 24.03 ЮЗ 5 10 км 8/5 600 м
[Sc diur, vesp Ac trans]
+3.1 -1.6 71 -2 -2 по сезону 1018.8 1012.6

 

Местоположение метеостанции Керчь (Крым, Россия): широта 45.37 долгота 36.43 высота над уровнем моря 49 м.

В архиве по умолчанию представлена погода в Керчи за последнюю неделю. Архивные данные за месяц целиком и за предыдущие месяцы, начиная с января 2011 года, Вы можете получить, выбрав интересующий диапазон дат из раскрывающегося списка и нажав кнопку "Ввод!".


*Определитесь, кто Вы:
робот инопланетянин человек

Внимание! Время в таблицах - всемирное. Для получения местного времени необходимо прибавить поправку, которая равна 3 ч.

Смотрите также архив погоды в соседних городах и на ближайших метеорологических станциях:

Погода в Опасном (Крым, Россия) (16 км)
Погода в Тамани (Краснодарский край, Россия) (28 км)
Погода в Мысовом (Крым, Россия) (48 км)
Погода в Темрюке (Краснодарский край, Россия) (74 км)
Погода в Владиславовке (Крым, Россия) (85 км)
Погода в Анапе (Краснодарский край, Россия) (86 км)
Погода в Феодосии (Крым, Россия) (91 км)
Погода в Карадаге (Крым, Россия) (110 км)
Погода в Славянске-на-Кубани (Краснодарский край, Россия) (133 км)
Погода в Крымске (Краснодарский край, Россия) (133 км)

Пояснения к столбцам:

Ветер - указаны скорость ветра в м/с - средняя за 10 мин, порывы в срок и между сроками (в фигурных скобках) и направление, откуда дует ветер: С - северный, СВ - северо-восточный, В - восточный, ЮВ - юго-восточный, Ю - южный, ЮЗ - юго-западный, З - западный, СЗ - северо-западный.
Видимость - горизонтальная дальность видимости в метрах или километрах. При видимости от 1 до 10 км при отсутствии осадков обычно наблюдается дымка, при ухудшении видимости до 1 км и менее - туман. В сухую погоду видимость может ухудшаться дымом, пылью или мглою.
Явления - указаны атмосферные явления, наблюдавшиеся в срок или в последний час перед сроком; фигурными скобками обозначены явления, наблюдавшиеся между сроками (за 1-3 часа до срока); квадратными скобками обозначены град или гололедные отложения с указанием их диаметра в мм.
Облачность - указаны через наклонную черту общая и нижняя облачность в баллах и высота нижней границы облаков в метрах; квадратными скобками обозначены формы облаков: Ci - перистые, Cs - перисто-слоистые, Cc - перисто-кучевые, Ac - высококучевые, As - высокослоистые, Sc - слоисто-кучевые, Ns - слоисто-дождевые, Cu - кучевые, Cb - кучево-дождевые. Подробнее классификацию облаков см. в Атласе облаков (PDF).
T - Температура воздуха - температура, измеренная на высоте 2 м над землей.
Td - Температура точки росы - температура, при понижении до которой содержащийся в воздухе водяной пар достигнет насыщения.
f - Относительная влажность воздуха - влажноcть воздуха, измеренная на высоте 2 м над землей.
Te - Эффективная температура - температура, которую ощущает одетый по сезону человек в тени. Характеристика душности погоды. При расчете учитывается влияние влажности воздуха и скорости ветра на теплоощущения человека.
Tes - Эффективная температура на солнце - температура, которую ощущает человек, с поправкой на солнечный нагрев. Характеристика знойности погоды. Зависит от высоты солнца над горизонтом, облачности и скорости ветра. Ночью, в пасмурную погоду, а также при ветре 12 м/с и более поправка равна нулю.
P - Атмосферное давление - приведенное к уровню моря атмосферное давление.
Po - Атмосферное давление - измеренное на уровне метеостанции атмосферное давление.
Tmin - Минимальная температура - минимум температуры воздуха на высоте 2 м над землей.
Tmax - Максимальная температура - максимум температуры воздуха на высоте 2 м над землей.
R - Количество осадков - Количество выпавших осадков за период времени, мм. При наведении курсора мыши на число - период времени, за который выпало указанное количество осадков.
R24 - Количество осадков - Количество выпавших осадков за 24 часа, мм.
S - Снежный покров - Высота снежного покрова, см. При наведении курсора мыши на число - состояние снежного покрова и степень покрытия местности в баллах.